Time,TemperatureF,DewpointF,PressureIn,WindDirection,WindDirectionDegrees,WindSpeedMPH,WindSpeedGustMPH,Humidity,HourlyPrecipIn,Conditions,Clouds,dailyrainin,SoftwareType,DateUTC
2013-01-30 00:00:00,53.2,52.1,29.53,South,178,3.0,3.0,96,0.00,,,0.00,Wunderground v.1.15,2013-01-30 05:00:00,
2013-01-30 00:03:00,53.2,52.1,29.53,SSE,163,5.0,5.0,96,0.00,,,0.00,Wunderground v.1.15,2013-01-30 05:03:00,
2013-01-30 00:05:00,53.2,52.1,29.53,SSE,157,3.0,7.0,96,0.00,,,0.00,Wunderground v.1.15,2013-01-30 05:05:00,
2013-01-30 00:08:00,53.2,52.1,29.53,SSE,157,3.0,7.0,96,0.00,,,0.00,Wunderground v.1.15,2013-01-30 05:08:00,
2013-01-30 00:11:00,53.3,52.2,29.52,SSE,150,4.0,5.0,96,0.00,,,0.00,Wunderground v.1.15,2013-01-30 05:11:00,
2013-01-30 00:13:00,53.3,52.2,29.52,South,176,2.0,7.0,96,0.00,,,0.00,Wunderground v.1.15,2013-01-30 05:13:00,
2013-01-30 00:16:00,53.3,52.2,29.53,South,169,4.0,7.0,96,0.00,,,0.00,Wunderground v.1.15,2013-01-30 05:16:00,
2013-01-30 00:18:00,53.5,52.4,29.52,SSE,165,8.0,13.0,96,0.00,,,0.00,Wunderground v.1.15,2013-01-30 05:18:00,
2013-01-30 00:21:00,53.8,52.7,29.52,SSE,150,3.0,11.0,96,0.00,,,0.01,Wunderground v.1.15,2013-01-30 05:21:00,
2013-01-30 00:23:00,53.9,52.8,29.52,South,169,4.0,11.0,96,0.00,,,0.01,Wunderground v.1.15,2013-01-30 05:23:00,
2013-01-30 00:26:00,53.9,52.8,29.51,South,169,1.0,11.0,96,0.00,,,0.01,Wunderground v.1.15,2013-01-30 05:26:00,
2013-01-30 00:28:00,53.9,52.8,29.51,SSE,150,4.0,11.0,96,0.00,,,0.01,Wunderground v.1.15,2013-01-30 05:28:00,
2013-01-30 00:29:00,53.9,52.8,29.51,SSE,157,3.0,11.0,96,0.00,,,0.01,Wunderground v.1.15,2013-01-30 05:29:00,
2013-01-30 00:31:00,54.0,52.9,29.50,South,174,4.0,10.0,96,0.00,,,0.01,Wunderground v.1.15,2013-01-30 05:31:00,
2013-01-30 00:33:00,54.1,53.0,29.50,SSE,154,4.0,11.0,96,0.00,,,0.01,Wunderground v.1.15,2013-01-30 05:33:00,
2013-01-30 00:34:00,54.1,53.0,29.50,SSW,196,5.0,11.0,96,0.00,,,0.01,Wunderground v.1.15,2013-01-30 05:34:00,
2013-01-30 00:36:00,54.1,52.7,29.50,SSE,148,7.0,11.0,95,0.00,,,0.01,Wunderground v.1.15,2013-01-30 05:36:00,
2013-01-30 00:38:00,54.2,52.8,29.50,SSE,153,7.0,11.0,95,0.00,,,0.01,Wunderground v.1.15,2013-01-30 05:38:00,
2013-01-30 00:39:00,54.2,52.8,29.50,SSE,159,6.0,11.0,95,0.00,,,0.01,Wunderground v.1.15,2013-01-30 05:39:00,
2013-01-30 00:41:00,54.2,52.8,29.49,South,187,5.0,10.0,95,0.00,,,0.01,Wunderground v.1.15,2013-01-30 05:41:00,
2013-01-30 00:43:00,54.1,52.7,29.49,South,182,2.0,10.0,95,0.00,,,0.01,Wunderground v.1.15,2013-01-30 05:43:00,
2013-01-30 00:44:00,54.1,52.7,29.49,South,182,2.0,10.0,95,0.00,,,0.01,Wunderground v.1.15,2013-01-30 05:44:00,
2013-01-30 00:46:00,54.1,52.7,29.49,South,189,6.0,11.0,95,0.00,,,0.01,Wunderground v.1.15,2013-01-30 05:46:00,
2013-01-30 00:48:00,54.1,52.7,29.49,South,175,2.0,11.0,95,0.00,,,0.01,Wunderground v.1.15,2013-01-30 05:48:00,
2013-01-30 00:49:00,54.1,52.7,29.48,SSW,208,4.0,11.0,95,0.00,,,0.01,Wunderground v.1.15,2013-01-30 05:49:00,
2013-01-30 00:51:00,54.1,52.7,29.48,SSE,153,5.0,6.0,95,0.00,,,0.01,Wunderground v.1.15,2013-01-30 05:51:00,
2013-01-30 00:54:00,54.1,52.7,29.48,SSE,167,2.0,11.0,95,0.00,,,0.01,Wunderground v.1.15,2013-01-30 05:54:00,
2013-01-30 00:56:00,54.0,52.6,29.47,SSE,165,5.0,11.0,95,0.00,,,0.01,Wunderground v.1.15,2013-01-30 05:56:00,
2013-01-30 00:59:00,54.0,52.6,29.47,South,169,2.0,11.0,95,0.00,,,0.01,Wunderground v.1.15,2013-01-30 05:59:00,
2013-01-30 01:01:00,54.0,52.6,29.47,SE,137,5.0,7.0,95,0.00,,,0.01,Wunderground v.1.15,2013-01-30 06:01:00,
2013-01-30 01:04:00,54.1,52.7,29.47,South,170,3.0,8.0,95,0.00,,,0.01,Wunderground v.1.15,2013-01-30 06:04:00,
2013-01-30 01:06:00,54.1,52.7,29.46,SE,143,4.0,9.0,95,0.00,,,0.01,Wunderground v.1.15,2013-01-30 06:06:00,
2013-01-30 01:09:00,54.1,52.7,29.45,SE,142,4.0,9.0,95,0.00,,,0.01,Wunderground v.1.15,2013-01-30 06:09:00,
2013-01-30 01:11:00,54.2,52.8,29.45,SSE,167,4.0,6.0,95,0.00,,,0.01,Wunderground v.1.15,2013-01-30 06:11:00,
2013-01-30 01:14:00,54.2,52.8,29.45,SSE,163,4.0,9.0,95,0.00,,,0.01,Wunderground v.1.15,2013-01-30 06:14:00,
2013-01-30 01:16:00,54.2,52.8,29.45,SSE,159,3.0,9.0,95,0.00,,,0.01,Wunderground v.1.15,2013-01-30 06:16:00,
2013-01-30 01:19:00,54.2,52.8,29.45,South,175,5.0,9.0,95,0.00,,,0.01,Wunderground v.1.15,2013-01-30 06:19:00,
2013-01-30 01:22:00,54.3,52.9,29.44,SE,144,4.0,6.0,95,0.00,,,0.01,Wunderground v.1.15,2013-01-30 06:22:00,
2013-01-30 01:24:00,54.4,53.0,29.44,South,172,3.0,8.0,95,0.00,,,0.01,Wunderground v.1.15,2013-01-30 06:24:00,
2013-01-30 01:27:00,54.4,53.0,29.44,SE,135,5.0,10.0,95,0.00,,,0.01,Wunderground v.1.15,2013-01-30 06:27:00,
2013-01-30 01:29:00,54.5,53.1,29.44,SSE,161,3.0,10.0,95,0.00,,,0.01,Wunderground v.1.15,2013-01-30 06:29:00,
2013-01-30 01:32:00,54.5,53.1,29.43,ESE,122,7.0,11.0,95,0.00,,,0.01,Wunderground v.1.15,2013-01-30 06:32:00,
2013-01-30 01:34:00,54.5,53.1,29.42,SSW,199,7.0,11.0,95,0.00,,,0.01,Wunderground v.1.15,2013-01-30 06:34:00,
2013-01-30 01:37:00,54.5,53.1,29.43,South,176,5.0,11.0,95,0.00,,,0.01,Wunderground v.1.15,2013-01-30 06:37:00,
2013-01-30 01:39:00,54.5,53.1,29.42,SE,144,4.0,11.0,95,0.00,,,0.01,Wunderground v.1.15,2013-01-30 06:39:00,
2013-01-30 01:42:00,54.5,53.1,29.42,South,184,3.0,8.0,95,0.00,,,0.01,Wunderground v.1.15,2013-01-30 06:42:00,
2013-01-30 01:44:00,54.5,53.1,29.42,South,182,4.0,12.0,95,0.00,,,0.01,Wunderground v.1.15,2013-01-30 06:44:00,
2013-01-30 01:45:00,54.6,53.2,29.42,South,173,6.0,12.0,95,0.00,,,0.01,Wunderground v.1.15,2013-01-30 06:45:00,
2013-01-30 01:47:00,54.6,53.2,29.42,SSW,209,5.0,12.0,95,0.00,,,0.01,Wunderground v.1.15,2013-01-30 06:47:00,
2013-01-30 01:49:00,54.6,53.2,29.41,SSE,162,5.0,12.0,95,0.00,,,0.01,Wunderground v.1.15,2013-01-30 06:49:00,
2013-01-30 01:50:00,54.6,53.2,29.41,SE,146,5.0,5.0,95,0.00,,,0.01,Wunderground v.1.15,2013-01-30 06:50:00,
2013-01-30 01:52:00,54.6,53.2,29.41,SE,128,3.0,8.0,95,0.00,,,0.01,Wunderground v.1.15,2013-01-30 06:52:00,
2013-01-30 01:54:00,54.7,53.3,29.41,South,175,7.0,14.0,95,0.00,,,0.01,Wunderground v.1.15,2013-01-30 06:54:00,
2013-01-30 01:55:00,54.7,53.3,29.41,South,186,6.0,14.0,95,0.00,,,0.01,Wunderground v.1.15,2013-01-30 06:55:00,
2013-01-30 01:57:00,54.8,53.4,29.41,SSE,156,2.0,14.0,95,0.00,,,0.01,Wunderground v.1.15,2013-01-30 06:57:00,
2013-01-30 01:59:00,54.9,53.5,29.42,SSW,202,4.0,14.0,95,0.00,,,0.01,Wunderground v.1.15,2013-01-30 06:59:00,
2013-01-30 02:00:00,54.9,53.5,29.42,SSE,155,9.0,9.0,95,0.00,,,0.01,Wunderground v.1.15,2013-01-30 07:00:00,
2013-01-30 02:02:00,55.0,53.6,29.41,SSE,163,4.0,9.0,95,1.52,,,0.03,Wunderground v.1.15,2013-01-30 07:02:00,
2013-01-30 02:04:00,55.0,53.6,29.41,South,178,4.0,10.0,95,0.40,,,0.04,Wunderground v.1.15,2013-01-30 07:04:00,
2013-01-30 02:05:00,55.0,53.6,29.40,SSW,193,7.0,10.0,95,0.35,,,0.04,Wunderground v.1.15,2013-01-30 07:05:00,
2013-01-30 02:07:00,55.0,53.6,29.40,SSE,168,2.0,10.0,95,0.15,,,0.05,Wunderground v.1.15,2013-01-30 07:07:00,
2013-01-30 02:10:00,54.9,53.5,29.40,SE,135,4.0,13.0,95,0.15,,,0.05,Wunderground v.1.15,2013-01-30 07:10:00,
2013-01-30 02:12:00,54.9,53.5,29.39,South,169,3.0,8.0,95,0.11,,,0.05,Wunderground v.1.15,2013-01-30 07:12:00,
2013-01-30 02:15:00,55.0,53.6,29.39,SE,142,3.0,8.0,95,0.08,,,0.05,Wunderground v.1.15,2013-01-30 07:15:00,
2013-01-30 02:17:00,55.0,53.6,29.39,South,169,6.0,9.0,95,0.06,,,0.05,Wunderground v.1.15,2013-01-30 07:17:00,
2013-01-30 02:19:00,55.1,53.7,29.38,South,184,4.0,9.0,95,0.05,,,0.05,Wunderground v.1.15,2013-01-30 07:19:00,
2013-01-30 02:20:00,55.1,53.7,29.38,SSE,148,4.0,5.0,95,0.05,,,0.05,Wunderground v.1.15,2013-01-30 07:20:00,
2013-01-30 02:21:00,55.1,53.7,29.38,SSE,167,4.0,7.0,95,0.04,,,0.05,Wunderground v.1.15,2013-01-30 07:21:00,
2013-01-30 02:22:00,55.1,53.7,29.38,SE,142,6.0,9.0,95,0.04,,,0.05,Wunderground v.1.15,2013-01-30 07:22:00,
2013-01-30 02:24:00,55.3,54.2,29.38,SSE,148,4.0,11.0,96,0.00,,,0.05,Wunderground v.1.15,2013-01-30 07:24:00,
2013-01-30 02:25:00,55.3,54.2,29.38,South,189,3.0,11.0,96,0.00,,,0.05,Wunderground v.1.15,2013-01-30 07:25:00,
2013-01-30 02:26:00,55.3,54.2,29.38,South,182,6.0,11.0,96,0.00,,,0.05,Wunderground v.1.15,2013-01-30 07:26:00,
2013-01-30 02:27:00,55.4,54.3,29.37,South,174,4.0,11.0,96,0.00,,,0.05,Wunderground v.1.15,2013-01-30 07:27:00,
2013-01-30 02:30:00,55.4,54.3,29.37,SE,146,2.0,5.0,96,0.00,,,0.05,Wunderground v.1.15,2013-01-30 07:30:00,
2013-01-30 02:31:00,55.4,54.3,29.37,SSE,162,6.0,6.0,96,0.00,,,0.05,Wunderground v.1.15,2013-01-30 07:31:00,
2013-01-30 02:33:00,55.4,54.3,29.37,SSW,205,6.0,7.0,96,0.00,,,0.05,Wunderground v.1.15,2013-01-30 07:33:00,
2013-01-30 02:35:00,55.4,54.3,29.36,South,182,5.0,16.0,96,0.00,,,0.05,Wunderground v.1.15,2013-01-30 07:35:00,
2013-01-30 02:36:00,55.5,54.4,29.36,SSE,161,3.0,16.0,96,0.00,,,0.05,Wunderground v.1.15,2013-01-30 07:36:00,
2013-01-30 02:38:00,55.5,54.4,29.36,SSW,205,4.0,16.0,96,0.00,,,0.05,Wunderground v.1.15,2013-01-30 07:38:00,
2013-01-30 02:40:00,55.6,54.2,29.36,SSE,163,2.0,5.0,95,0.00,,,0.05,Wunderground v.1.15,2013-01-30 07:40:00,
2013-01-30 02:41:00,55.6,54.2,29.36,SSE,163,3.0,5.0,95,0.00,,,0.05,Wunderground v.1.15,2013-01-30 07:41:00,
2013-01-30 02:43:00,55.6,54.2,29.36,SSE,163,3.0,11.0,95,0.00,,,0.05,Wunderground v.1.15,2013-01-30 07:43:00,
2013-01-30 02:45:00,55.6,54.2,29.36,SSE,156,7.0,12.0,95,0.00,,,0.05,Wunderground v.1.15,2013-01-30 07:45:00,
2013-01-30 02:46:00,55.6,54.2,29.35,SE,127,6.0,12.0,95,0.00,,,0.05,Wunderground v.1.15,2013-01-30 07:46:00,
2013-01-30 02:48:00,55.8,54.4,29.36,SSE,165,6.0,12.0,95,0.00,,,0.05,Wunderground v.1.15,2013-01-30 07:48:00,
2013-01-30 02:50:00,55.9,54.8,29.36,South,173,4.0,7.0,96,0.00,,,0.05,Wunderground v.1.15,2013-01-30 07:50:00,
2013-01-30 02:51:00,55.9,54.8,29.36,South,180,10.0,10.0,96,0.00,,,0.05,Wunderground v.1.15,2013-01-30 07:51:00,
2013-01-30 02:53:00,56.1,55.0,29.36,South,175,2.0,13.0,96,0.00,,,0.05,Wunderground v.1.15,2013-01-30 07:53:00,
2013-01-30 02:55:00,56.2,54.8,29.36,SSE,154,6.0,13.0,95,0.00,,,0.05,Wunderground v.1.15,2013-01-30 07:55:00,
2013-01-30 02:56:00,56.2,54.8,29.36,SSE,150,6.0,13.0,95,0.00,,,0.05,Wunderground v.1.15,2013-01-30 07:56:00,
2013-01-30 02:58:00,56.3,54.9,29.35,SSW,213,6.0,13.0,95,0.00,,,0.05,Wunderground v.1.15,2013-01-30 07:58:00,
2013-01-30 03:00:00,56.4,55.0,29.35,SSE,153,3.0,8.0,95,0.00,,,0.05,Wunderground v.1.15,2013-01-30 08:00:00,
2013-01-30 03:01:00,56.5,55.1,29.35,South,170,4.0,8.0,95,0.00,,,0.05,Wunderground v.1.15,2013-01-30 08:01:00,
2013-01-30 03:03:00,56.6,55.2,29.35,SSE,165,4.0,12.0,95,0.00,,,0.05,Wunderground v.1.15,2013-01-30 08:03:00,
2013-01-30 03:05:00,56.9,55.5,29.35,SW,214,8.0,17.0,95,0.00,,,0.05,Wunderground v.1.15,2013-01-30 08:05:00,
2013-01-30 03:06:00,56.9,55.5,29.35,WSW,237,7.0,17.0,95,0.00,,,0.05,Wunderground v.1.15,2013-01-30 08:06:00,
2013-01-30 03:08:00,57.1,55.7,29.34,SSE,163,9.0,18.0,95,0.00,,,0.05,Wunderground v.1.15,2013-01-30 08:08:00,
2013-01-30 03:11:00,57.4,55.7,29.35,SE,132,3.0,9.0,94,0.00,,,0.05,Wunderground v.1.15,2013-01-30 08:11:00,
2013-01-30 03:13:00,57.5,55.8,29.35,South,181,4.0,14.0,94,0.00,,,0.05,Wunderground v.1.15,2013-01-30 08:13:00,
2013-01-30 03:16:00,57.5,55.8,29.34,SSE,157,6.0,14.0,94,0.00,,,0.05,Wunderground v.1.15,2013-01-30 08:16:00,
2013-01-30 03:17:00,57.5,55.8,29.34,South,175,4.0,14.0,94,0.00,,,0.05,Wunderground v.1.15,2013-01-30 08:17:00,
2013-01-30 03:18:00,57.6,55.9,29.34,South,183,3.0,14.0,94,0.00,,,0.05,Wunderground v.1.15,2013-01-30 08:18:00,
2013-01-30 03:21:00,57.8,56.1,29.33,SSE,151,6.0,15.0,94,0.00,,,0.06,Wunderground v.1.15,2013-01-30 08:21:00,
2013-01-30 03:22:00,57.8,56.1,29.33,SSE,165,5.0,15.0,94,0.00,,,0.06,Wunderground v.1.15,2013-01-30 08:22:00,
2013-01-30 03:23:00,57.8,56.1,29.33,SW,222,14.0,15.0,94,0.00,,,0.06,Wunderground v.1.15,2013-01-30 08:23:00,
2013-01-30 03:26:00,57.9,56.2,29.33,South,180,3.0,17.0,94,0.00,,,0.06,Wunderground v.1.15,2013-01-30 08:26:00,
2013-01-30 03:27:00,57.9,56.2,29.33,SW,215,3.0,17.0,94,0.00,,,0.06,Wunderground v.1.15,2013-01-30 08:27:00,
2013-01-30 03:28:00,57.9,56.2,29.33,SSW,197,8.0,17.0,94,0.00,,,0.06,Wunderground v.1.15,2013-01-30 08:28:00,
2013-01-30 03:31:00,58.0,56.3,29.33,SE,140,5.0,9.0,94,0.00,,,0.06,Wunderground v.1.15,2013-01-30 08:31:00,
2013-01-30 03:32:00,58.1,56.4,29.33,SSE,155,5.0,13.0,94,0.00,,,0.06,Wunderground v.1.15,2013-01-30 08:32:00,
2013-01-30 03:33:00,58.2,56.5,29.32,SSE,164,4.0,13.0,94,0.00,,,0.06,Wunderground v.1.15,2013-01-30 08:33:00,
2013-01-30 03:36:00,58.3,56.3,29.32,SSE,167,10.0,13.0,93,0.00,,,0.06,Wunderground v.1.15,2013-01-30 08:36:00,
2013-01-30 03:37:00,58.3,56.3,29.32,South,191,7.0,13.0,93,0.00,,,0.06,Wunderground v.1.15,2013-01-30 08:37:00,
2013-01-30 03:38:00,58.4,56.4,29.32,SW,219,5.0,13.0,93,0.00,,,0.06,Wunderground v.1.15,2013-01-30 08:38:00,
2013-01-30 03:41:00,58.4,56.4,29.32,SW,219,10.0,13.0,93,0.00,,,0.06,Wunderground v.1.15,2013-01-30 08:41:00,
2013-01-30 03:42:00,58.5,56.5,29.33,SSW,199,8.0,15.0,93,0.00,,,0.06,Wunderground v.1.15,2013-01-30 08:42:00,
2013-01-30 03:43:00,58.7,56.7,29.33,SSW,211,5.0,15.0,93,0.00,,,0.06,Wunderground v.1.15,2013-01-30 08:43:00,
2013-01-30 03:46:00,58.9,56.9,29.32,SE,143,10.0,16.0,93,0.00,,,0.06,Wunderground v.1.15,2013-01-30 08:46:00,
2013-01-30 03:47:00,59.0,57.0,29.32,SSE,153,8.0,17.0,93,0.00,,,0.06,Wunderground v.1.15,2013-01-30 08:47:00,
2013-01-30 03:48:00,59.2,57.2,29.32,SSE,162,5.0,17.0,93,0.00,,,0.06,Wunderground v.1.15,2013-01-30 08:48:00,
2013-01-30 03:51:00,59.3,57.0,29.32,SW,220,5.0,11.0,92,0.00,,,0.06,Wunderground v.1.15,2013-01-30 08:51:00,
2013-01-30 03:52:00,59.3,57.0,29.32,SSE,148,9.0,11.0,92,0.00,,,0.06,Wunderground v.1.15,2013-01-30 08:52:00,
2013-01-30 03:53:00,59.3,57.0,29.32,SSW,210,8.0,11.0,92,0.00,,,0.06,Wunderground v.1.15,2013-01-30 08:53:00,
2013-01-30 03:56:00,59.4,57.1,29.31,South,172,6.0,17.0,92,0.00,,,0.06,Wunderground v.1.15,2013-01-30 08:56:00,
2013-01-30 03:57:00,59.4,57.1,29.31,South,169,9.0,17.0,92,0.00,,,0.06,Wunderground v.1.15,2013-01-30 08:57:00,
2013-01-30 03:59:00,59.6,57.3,29.31,SSE,167,5.0,17.0,92,0.00,,,0.06,Wunderground v.1.15,2013-01-30 08:59:00,
2013-01-30 04:01:00,59.7,57.1,29.30,SW,224,3.0,11.0,91,0.00,,,0.06,Wunderground v.1.15,2013-01-30 09:01:00,
2013-01-30 04:02:00,59.7,57.1,29.30,SSE,163,13.0,18.0,91,0.00,,,0.06,Wunderground v.1.15,2013-01-30 09:02:00,
2013-01-30 04:03:00,59.8,57.2,29.30,SSW,194,16.0,20.0,91,0.00,,,0.06,Wunderground v.1.15,2013-01-30 09:03:00,
2013-01-30 04:06:00,59.8,57.2,29.30,WSW,245,11.0,21.0,91,0.00,,,0.06,Wunderground v.1.15,2013-01-30 09:06:00,
2013-01-30 04:07:00,59.9,57.3,29.30,South,173,5.0,21.0,91,0.00,,,0.06,Wunderground v.1.15,2013-01-30 09:07:00,
2013-01-30 04:08:00,59.9,57.3,29.30,SSE,165,4.0,21.0,91,0.00,,,0.07,Wunderground v.1.15,2013-01-30 09:08:00,
2013-01-30 04:11:00,59.9,57.3,29.30,WSW,249,8.0,17.0,91,0.00,,,0.07,Wunderground v.1.15,2013-01-30 09:11:00,
2013-01-30 04:12:00,60.0,57.4,29.30,SW,226,6.0,17.0,91,0.00,,,0.07,Wunderground v.1.15,2013-01-30 09:12:00,
2013-01-30 04:13:00,60.0,57.4,29.30,SSE,160,4.0,17.0,91,0.00,,,0.07,Wunderground v.1.15,2013-01-30 09:13:00,
2013-01-30 04:16:00,60.0,57.4,29.31,SW,217,7.0,17.0,91,0.00,,,0.07,Wunderground v.1.15,2013-01-30 09:16:00,
2013-01-30 04:17:00,60.0,57.4,29.32,WSW,242,8.0,17.0,91,0.00,,,0.07,Wunderground v.1.15,2013-01-30 09:17:00,
2013-01-30 04:19:00,59.9,57.3,29.33,NW,311,7.0,17.0,91,0.06,,,0.08,Wunderground v.1.15,2013-01-30 09:19:00,
2013-01-30 04:21:00,59.6,57.3,29.34,WSW,253,5.0,12.0,92,1.13,,,0.13,Wunderground v.1.15,2013-01-30 09:21:00,
2013-01-30 04:22:00,59.3,57.0,29.34,West,279,8.0,13.0,92,1.29,,,0.15,Wunderground v.1.15,2013-01-30 09:22:00,
2013-01-30 04:24:00,58.5,56.2,29.34,WNW,294,7.0,15.0,92,0.71,,,0.17,Wunderground v.1.15,2013-01-30 09:24:00,
2013-01-30 04:26:00,57.7,55.4,29.33,West,281,5.0,15.0,92,0.38,,,0.18,Wunderground v.1.15,2013-01-30 09:26:00,
2013-01-30 04:27:00,57.4,55.1,29.33,WNW,295,10.0,15.0,92,0.35,,,0.18,Wunderground v.1.15,2013-01-30 09:27:00,
2013-01-30 04:29:00,56.8,54.5,29.33,NW,323,9.0,15.0,92,0.31,,,0.19,Wunderground v.1.15,2013-01-30 09:29:00,
2013-01-30 04:31:00,56.3,54.0,29.33,West,280,6.0,11.0,92,0.16,,,0.19,Wunderground v.1.15,2013-01-30 09:31:00,
2013-01-30 04:32:00,56.2,53.9,29.33,WSW,256,5.0,11.0,92,0.14,,,0.19,Wunderground v.1.15,2013-01-30 09:32:00,
2013-01-30 04:34:00,55.8,53.8,29.34,WNW,288,3.0,14.0,93,0.11,,,0.20,Wunderground v.1.15,2013-01-30 09:34:00,
2013-01-30 04:36:00,55.5,53.5,29.34,WNW,296,4.0,14.0,93,0.11,,,0.20,Wunderground v.1.15,2013-01-30 09:36:00,
2013-01-30 04:37:00,55.4,53.4,29.34,West,274,5.0,14.0,93,0.11,,,0.20,Wunderground v.1.15,2013-01-30 09:37:00,
2013-01-30 04:39:00,55.0,53.0,29.34,NW,320,8.0,14.0,93,0.09,,,0.20,Wunderground v.1.15,2013-01-30 09:39:00,
2013-01-30 04:41:00,54.6,52.6,29.34,NNW,329,4.0,7.0,93,0.07,,,0.20,Wunderground v.1.15,2013-01-30 09:41:00,
2013-01-30 04:42:00,54.6,52.6,29.34,West,275,6.0,7.0,93,0.07,,,0.20,Wunderground v.1.15,2013-01-30 09:42:00,
2013-01-30 04:44:00,54.2,52.2,29.34,NW,307,5.0,12.0,93,0.05,,,0.21,Wunderground v.1.15,2013-01-30 09:44:00,
2013-01-30 04:46:00,53.9,51.9,29.34,WNW,295,4.0,12.0,93,0.05,,,0.21,Wunderground v.1.15,2013-01-30 09:46:00,
2013-01-30 04:47:00,53.8,51.8,29.34,NW,315,5.0,12.0,93,0.05,,,0.21,Wunderground v.1.15,2013-01-30 09:47:00,
2013-01-30 04:49:00,53.6,51.9,29.34,NNW,338,6.0,12.0,94,0.05,,,0.21,Wunderground v.1.15,2013-01-30 09:49:00,
2013-01-30 04:51:00,53.3,51.6,29.34,WNW,303,4.0,9.0,94,0.05,,,0.21,Wunderground v.1.15,2013-01-30 09:51:00,
2013-01-30 04:52:00,53.3,51.6,29.33,NNW,327,10.0,10.0,94,0.05,,,0.21,Wunderground v.1.15,2013-01-30 09:52:00,
2013-01-30 04:54:00,53.1,51.4,29.33,NNW,339,7.0,10.0,94,0.05,,,0.21,Wunderground v.1.15,2013-01-30 09:54:00,
2013-01-30 04:56:00,53.0,51.3,29.33,NNW,329,1.0,10.0,94,0.05,,,0.21,Wunderground v.1.15,2013-01-30 09:56:00,
2013-01-30 04:57:00,53.0,51.3,29.33,NW,325,4.0,10.0,94,0.05,,,0.21,Wunderground v.1.15,2013-01-30 09:57:00,
2013-01-30 04:59:00,52.8,51.1,29.33,NNW,336,5.0,10.0,94,0.04,,,0.21,Wunderground v.1.15,2013-01-30 09:59:00,
2013-01-30 05:01:00,52.7,51.0,29.33,NW,325,3.0,4.0,94,0.00,,,0.21,Wunderground v.1.15,2013-01-30 10:01:00,
2013-01-30 05:02:00,52.7,51.0,29.33,NW,324,2.0,4.0,94,0.00,,,0.21,Wunderground v.1.15,2013-01-30 10:02:00,
2013-01-30 05:04:00,52.6,50.9,29.34,NW,319,4.0,5.0,94,0.00,,,0.21,Wunderground v.1.15,2013-01-30 10:04:00,
2013-01-30 05:06:00,52.5,51.1,29.34,NW,325,3.0,7.0,95,0.00,,,0.21,Wunderground v.1.15,2013-01-30 10:06:00,
2013-01-30 05:07:00,52.4,51.0,29.34,NW,307,3.0,7.0,95,0.00,,,0.21,Wunderground v.1.15,2013-01-30 10:07:00,
2013-01-30 05:10:00,52.3,50.6,29.34,NW,318,4.0,7.0,94,0.00,,,0.21,Wunderground v.1.15,2013-01-30 10:10:00,
2013-01-30 05:12:00,52.2,50.5,29.34,NW,319,4.0,9.0,94,0.00,,,0.21,Wunderground v.1.15,2013-01-30 10:12:00,
2013-01-30 05:15:00,52.1,50.4,29.34,NW,322,3.0,9.0,94,0.00,,,0.21,Wunderground v.1.15,2013-01-30 10:15:00,
2013-01-30 05:17:00,52.0,50.3,29.34,NW,323,5.0,9.0,94,0.00,,,0.22,Wunderground v.1.15,2013-01-30 10:17:00,
2013-01-30 05:20:00,51.8,50.4,29.34,NW,322,2.0,4.0,95,0.00,,,0.22,Wunderground v.1.15,2013-01-30 10:20:00,
2013-01-30 05:22:00,51.8,50.4,29.34,NW,322,4.0,4.0,95,0.00,,,0.22,Wunderground v.1.15,2013-01-30 10:22:00,
2013-01-30 05:25:00,51.7,50.3,29.34,NW,322,2.0,4.0,95,0.08,,,0.23,Wunderground v.1.15,2013-01-30 10:25:00,
2013-01-30 05:27:00,51.6,50.2,29.35,NW,305,1.0,4.0,95,0.08,,,0.23,Wunderground v.1.15,2013-01-30 10:27:00,
2013-01-30 05:30:00,51.5,50.1,29.34,NNW,340,2.0,4.0,95,0.08,,,0.23,Wunderground v.1.15,2013-01-30 10:30:00,
2013-01-30 05:32:00,51.5,50.1,29.34,NW,325,4.0,6.0,95,0.08,,,0.23,Wunderground v.1.15,2013-01-30 10:32:00,
2013-01-30 05:35:00,51.5,50.1,29.34,NW,307,3.0,7.0,95,0.06,,,0.23,Wunderground v.1.15,2013-01-30 10:35:00,
2013-01-30 05:37:00,51.3,49.9,29.34,NW,307,1.0,7.0,95,0.05,,,0.23,Wunderground v.1.15,2013-01-30 10:37:00,
2013-01-30 05:40:00,51.1,49.7,29.34,NW,307,0.0,3.0,95,0.04,,,0.24,Wunderground v.1.15,2013-01-30 10:40:00,
2013-01-30 05:42:00,51.0,49.6,29.35,NW,307,1.0,3.0,95,0.04,,,0.24,Wunderground v.1.15,2013-01-30 10:42:00,
2013-01-30 05:45:00,51.0,49.6,29.35,WNW,292,1.0,3.0,95,0.04,,,0.24,Wunderground v.1.15,2013-01-30 10:45:00,
2013-01-30 05:47:00,50.9,49.5,29.36,WNW,286,2.0,4.0,95,0.04,,,0.24,Wunderground v.1.15,2013-01-30 10:47:00,
2013-01-30 05:50:00,50.9,49.8,29.36,WNW,288,1.0,2.0,96,0.07,,,0.25,Wunderground v.1.15,2013-01-30 10:50:00,
2013-01-30 05:52:00,50.9,49.8,29.36,WNW,298,2.0,5.0,96,0.07,,,0.25,Wunderground v.1.15,2013-01-30 10:52:00,
2013-01-30 05:55:00,50.9,49.8,29.37,West,277,4.0,8.0,96,0.11,,,0.26,Wunderground v.1.15,2013-01-30 10:55:00,
2013-01-30 05:57:00,50.9,49.8,29.37,West,273,6.0,8.0,96,0.20,,,0.27,Wunderground v.1.15,2013-01-30 10:57:00,
2013-01-30 05:58:00,50.9,49.8,29.37,WNW,285,6.0,8.0,96,0.20,,,0.27,Wunderground v.1.15,2013-01-30 10:58:00,
2013-01-30 06:00:00,50.8,49.7,29.38,NW,315,6.0,7.0,96,0.18,,,0.27,Wunderground v.1.15,2013-01-30 11:00:00,
2013-01-30 06:02:00,50.7,49.6,29.38,NW,325,3.0,7.0,96,0.11,,,0.27,Wunderground v.1.15,2013-01-30 11:02:00,
2013-01-30 06:03:00,50.7,49.6,29.38,WNW,282,4.0,7.0,96,0.10,,,0.27,Wunderground v.1.15,2013-01-30 11:03:00,
2013-01-30 06:05:00,50.6,49.5,29.38,West,279,6.0,8.0,96,0.07,,,0.27,Wunderground v.1.15,2013-01-30 11:05:00,
2013-01-30 06:07:00,50.7,49.6,29.39,WNW,300,4.0,8.0,96,0.07,,,0.28,Wunderground v.1.15,2013-01-30 11:07:00,
2013-01-30 06:08:00,50.7,49.6,29.39,WNW,286,4.0,8.0,96,0.07,,,0.28,Wunderground v.1.15,2013-01-30 11:08:00,
2013-01-30 06:10:00,50.6,49.5,29.38,West,281,2.0,4.0,96,0.07,,,0.28,Wunderground v.1.15,2013-01-30 11:10:00,
2013-01-30 06:12:00,50.6,49.5,29.38,West,270,3.0,10.0,96,0.07,,,0.28,Wunderground v.1.15,2013-01-30 11:12:00,
2013-01-30 06:13:00,50.6,49.5,29.38,West,270,3.0,10.0,96,0.08,,,0.29,Wunderground v.1.15,2013-01-30 11:13:00,
2013-01-30 06:15:00,50.5,49.4,29.38,WNW,288,3.0,10.0,96,0.08,,,0.29,Wunderground v.1.15,2013-01-30 11:15:00,
2013-01-30 06:17:00,50.5,49.4,29.37,NW,307,4.0,10.0,96,0.08,,,0.29,Wunderground v.1.15,2013-01-30 11:17:00,
2013-01-30 06:18:00,50.5,49.4,29.37,WNW,295,4.0,10.0,96,0.08,,,0.29,Wunderground v.1.15,2013-01-30 11:18:00,
2013-01-30 06:20:00,50.5,49.4,29.37,West,273,2.0,4.0,96,0.08,,,0.29,Wunderground v.1.15,2013-01-30 11:20:00,
2013-01-30 06:22:00,50.5,49.4,29.37,West,281,7.0,7.0,96,0.06,,,0.29,Wunderground v.1.15,2013-01-30 11:22:00,
2013-01-30 06:23:00,50.5,49.4,29.37,West,278,3.0,7.0,96,0.06,,,0.29,Wunderground v.1.15,2013-01-30 11:23:00,
2013-01-30 06:25:00,50.4,49.3,29.37,WNW,297,2.0,7.0,96,0.05,,,0.29,Wunderground v.1.15,2013-01-30 11:25:00,
2013-01-30 06:27:00,50.4,49.3,29.37,WNW,290,3.0,8.0,96,0.04,,,0.30,Wunderground v.1.15,2013-01-30 11:27:00,
2013-01-30 06:28:00,50.4,49.3,29.37,WNW,290,3.0,8.0,96,0.04,,,0.30,Wunderground v.1.15,2013-01-30 11:28:00,
2013-01-30 06:30:00,50.3,49.2,29.37,WNW,285,1.0,3.0,96,0.04,,,0.30,Wunderground v.1.15,2013-01-30 11:30:00,
2013-01-30 06:32:00,50.3,49.2,29.36,WNW,285,2.0,3.0,96,0.04,,,0.30,Wunderground v.1.15,2013-01-30 11:32:00,
2013-01-30 06:33:00,50.3,49.2,29.36,WNW,285,2.0,3.0,96,0.04,,,0.30,Wunderground v.1.15,2013-01-30 11:33:00,
2013-01-30 06:34:00,50.3,49.2,29.36,WNW,285,0.0,3.0,96,0.04,,,0.30,Wunderground v.1.15,2013-01-30 11:34:00,
2013-01-30 06:35:00,50.2,49.1,29.36,WNW,285,0.0,3.0,96,0.04,,,0.30,Wunderground v.1.15,2013-01-30 11:35:00,
2013-01-30 06:37:00,50.1,49.0,29.36,WNW,285,0.0,3.0,96,0.04,,,0.30,Wunderground v.1.15,2013-01-30 11:37:00,
2013-01-30 06:38:00,50.2,49.1,29.36,WNW,285,0.0,3.0,96,0.04,,,0.30,Wunderground v.1.15,2013-01-30 11:38:00,
2013-01-30 06:39:00,50.1,49.0,29.36,WNW,285,2.0,3.0,96,0.04,,,0.30,Wunderground v.1.15,2013-01-30 11:39:00,
2013-01-30 06:40:00,50.1,49.0,29.36,WNW,285,1.0,2.0,96,0.04,,,0.30,Wunderground v.1.15,2013-01-30 11:40:00,
2013-01-30 06:42:00,50.0,48.9,29.37,WNW,285,0.0,2.0,96,0.04,,,0.30,Wunderground v.1.15,2013-01-30 11:42:00,
2013-01-30 06:43:00,50.0,48.9,29.37,WNW,285,0.0,2.0,96,0.04,,,0.30,Wunderground v.1.15,2013-01-30 11:43:00,
2013-01-30 06:44:00,50.0,48.9,29.37,WNW,285,2.0,2.0,96,0.04,,,0.30,Wunderground v.1.15,2013-01-30 11:44:00,
2013-01-30 06:45:00,50.0,48.9,29.37,WNW,285,0.0,2.0,96,0.04,,,0.31,Wunderground v.1.15,2013-01-30 11:45:00,
2013-01-30 06:47:00,50.0,48.9,29.37,WNW,285,0.0,3.0,96,0.04,,,0.31,Wunderground v.1.15,2013-01-30 11:47:00,
2013-01-30 06:48:00,50.0,48.9,29.37,WNW,285,1.0,3.0,96,0.04,,,0.31,Wunderground v.1.15,2013-01-30 11:48:00,
2013-01-30 06:49:00,50.0,48.9,29.37,WNW,285,1.0,3.0,96,0.04,,,0.31,Wunderground v.1.15,2013-01-30 11:49:00,
2013-01-30 06:50:00,50.0,48.9,29.37,WNW,285,0.0,2.0,96,0.04,,,0.31,Wunderground v.1.15,2013-01-30 11:50:00,
2013-01-30 06:52:00,50.0,48.9,29.36,WNW,285,0.0,2.0,96,0.04,,,0.31,Wunderground v.1.15,2013-01-30 11:52:00,
2013-01-30 06:53:00,50.0,48.9,29.36,WNW,285,0.0,2.0,96,0.04,,,0.31,Wunderground v.1.15,2013-01-30 11:53:00,
2013-01-30 06:54:00,50.0,49.2,29.36,WNW,285,0.0,2.0,97,0.06,,,0.32,Wunderground v.1.15,2013-01-30 11:54:00,